This demonstration page uses our WeatherBlox Daily Observations layout. Learn more.

Left ArrowRight Arrow

34.16533, -84.80231

Hourly Observations for February 7, 2015

Temp ( °F °C ) Dew Point ( °F °C ) Humidity (%) Winds ( mph kmh ) Pressure ( in mb ) Visibility ( mi km ) Precip ( " mm )
12:53 am 00:53 Clear 27 -2.8 19 -7.2 72 72 Calm 30.28 1026 10 16 0.00 0.00
1:53 am 01:53 Clear 25 -3.9 19 -7.2 78 78 Calm 30.27 1025 10 16 0.00 0.00
2:53 am 02:53 Clear 25 -3.9 18 -7.8 75 75 Calm 30.28 1025 10 16 0.00 0.00
3:53 am 03:53 Clear 25 -3.9 19 -7.2 78 78 Calm 30.27 1025 10 16 0.00 0.00
4:53 am 04:53 Clear 25 -3.9 19 -7.2 78 78 Calm 30.28 1025 10 16 0.00 0.00
5:53 am 05:53 Clear 23 -5 19 -7.2 85 85 Calm 30.29 1026 10 16 0.00 0.00
6:53 am 06:53 Clear 24 -4.4 19 -7.2 81 81 Calm 30.29 1026 10 16 0.00 0.00
7:53 am 07:53 Sunny 24 -4.4 19 -7.2 81 81 Calm 30.30 1026 10 16 0.00 0.00
8:53 am 08:53 Sunny 31 -0.6 25 -3.9 79 79 Calm 30.30 1026 10 16 0.00 0.00
9:53 am 09:53 Sunny 41 5 27 -2.8 57 57 N 3 6 30.29 1026 10 16 0.00 0.00
10:53 am 10:53 Sunny 50 10 24 -4.4 36 36 Calm 30.29 1026 10 16 0.00 0.00
11:53 am 11:53 Sunny 55 12.8 23 -5 29 29 VRB 3 6 30.26 1025 10 16 0.00 0.00
12:53 pm 12:53 Sunny 61 16.1 19 -7.2 20 20 VRB 3 6 30.22 1023 10 16 0.00 0.00
1:53 pm 13:53 Sunny 62 16.7 18 -7.8 18 18 Calm 30.17 1022 10 16 0.00 0.00
2:53 pm 14:53 Sunny 65 18.3 16 -8.9 15 15 VRB 5 7 30.13 1020 10 16 0.00 0.00
3:53 pm 15:53 Sunny 65 18.3 22 -5.6 19 19 VRB 6 9 30.11 1020 10 16 0.00 0.00
4:53 pm 16:53 Sunny 64 17.8 19 -7.2 18 18 VRB 7 11 30.11 1020 10 16 0.00 0.00
5:53 pm 17:53 Sunny 61 16.1 19 -7.2 20 20 S 6 9 30.11 1020 10 16 0.00 0.00
6:53 pm 18:53 Clear 55 12.8 19 -7.2 24 24 S 5 7 30.12 1020 10 16 0.00 0.00
7:53 pm 19:53 Clear 47 8.3 21 -6.1 36 36 S 3 6 30.14 1021 10 16 0.00 0.00
8:53 pm 20:53 Clear 46 7.8 21 -6.1 37 37 Calm 30.15 1021 10 16 0.00 0.00
9:53 pm 21:53 Clear 40 4.4 23 -5 51 51 Calm 30.14 1021 10 16 0.00 0.00
10:53 pm 22:53 Clear 38 3.3 23 -5 55 55 Calm 30.14 1021 10 16 0.00 0.00
11:53 pm 23:53 Clear 35 1.7 24 -4.4 64 64 Calm 30.12 1020 10 16 0.00 0.00

Powered by AerisWeather